Regional Weather Roundup
Issued by NWS Goodland, KS

Home | Current Version | Previous Version | Text Only | Print | Product List | Glossary Off
Versions: 1 2 3 4 5 6 7 8 9 10 11 12 13 14 15 16 17 18 19 20 21 22 23 24 25 26 27 28 29 30 31 32 33 34 35 36 37 38 39 40 41 42 43 44 45 46 47 48 49 50

000
ASUS43 KGLD 050208
RWRGLD

GOODLAND FORECAST AREA HOURLY WEATHER ROUNDUP
NATIONAL WEATHER SERVICE GOODLAND KS
800 PM MDT WED MAY 04 2016

...OFFICIAL OBSERVATIONS...

CITY           SKY/WX    TMP DP  RH WIND       PRES   REMARKS
GOODLAND KS    CLEAR     60  45  57 E8        30.10S
HILL CITY KS   CLEAR     63  42  46 NE5       30.07R
IMPERIAL NEB   CLEAR     65  42  43 E6        30.08S
MCCOOK NEB     CLEAR     62  43  49 SE8       30.06S
AKRON CO       CLEAR     60  42  51 SE7       30.12S
BURLINGTON CO  CLEAR     62  43  49 E10       30.13R
LIMON CO       CLEAR     55  40  56 E9        30.16R
$$

...UNOFFICIAL OBSERVATIONS...

CITY           SKY/WX    TMP DP  RH WIND       PRES   REMARKS
COLBY KS       CLEAR     61  48  63 E7        30.10S
LENORA KS        N/A     67  32  27 MISG        N/A
NORTON KS      CLEAR     61  37  41 CALM      30.06S
SHARON SPRINGS   N/A     65  47  51 CALM        N/A
KIT CARSON CO    N/A     66  43  43 MISG        N/A
YUMA CO          N/A     60  44  55 SE6         N/A
$$




USA.gov is the U.S. government's official web portal to all federal, state and local government web resources and services.